Volver al catálogo

YAOGAN 1

ActivoMilitarSSO
NORAD 29092·PAYLOAD·🇨🇳 China

Lanzado Apr 26, 2006 desde Taiyuan Satellite Launch Center

Loading…

Próximos Pases (próximas 24 horas)

TLE

ActualizadoSource: Space-Track

Época: Sep 14, 2026, 11:30 UTC

1 29092U 06015A   26257.47945416  .00000527  00000-0  63517-4 0  9996
2 29092  97.7445 276.3467 0001420  89.3651 270.7728 14.87852627103089

Sigue YAOGAN 1 en tiempo real con AllMySat

Download on the App Store